Weather History for Idaho Falls, ID

Change the Weather History Date:

Thursday, January 2, 2014

  Actual Average Record
Temperature  
Mean Temperature 23 °F 20 °F  
Max Temperature 31 °F 28 °F 45 °F (1981)
Min Temperature 14 °F 11 °F -25 °F (1974)
Degree Days  
Heating Degree Days 42 45  
Month to date heating degree days 85 90  
Since 1 July heating degree days 3350 3363  
Cooling Degree Days 0 0  
Month to date cooling degree days 0 0  
Year to date cooling degree days 0 0  
Moisture  
Dew Point 21 °F    
Average Humidity 87    
Maximum Humidity 96    
Minimum Humidity 78    
Precipitation  
Precipitation 0.00 in 0.02 in 0.53 in (2006)
Month to date precipitation 0.00 0.05  
Year to date precipitation 0.00 0.05  
Sea Level Pressure  
Sea Level Pressure 30.37 in    
Wind  
Wind Speed 5 mph (North)    
Max Wind Speed 9 mph    
Max Gust Speed 10 mph    
Visibility 8 miles    
Events Fog    
T = Trace of Precipitation, MM = Missing Value Source: NWS Daily Summary

Daily Weather History Graph

Daily Weather History Graph

Search for Another Location

Airport:

Trip Planner

Search our weather history database for the weather conditions in past years. The results will help you decide how hot, cold, wet, or windy it might be!

Date:

Astronomy

Jan. 02, 2014 Rise Set
Actual Time 8:01 AM MST 5:03 PM MST
Civil Twilight 7:28 AM MST 5:36 PM MST
Nautical Twilight 6:52 AM MST 6:12 PM MST
Astronomical Twilight 6:18 AM MST 6:46 PM MST
Moon 8:42 AM MST (1/2) 7:09 PM MST (1/2)
Length of Visible Light 10h 07m
Length of Day
9h 02m
Waxing Crescent, 3% of the Moon is Illuminated
Jan 2
Waxing Crescent
Jan 7
First Quarter
Jan 15
Full
Jan 23
Last Quarter
Jan 30
New

Hourly Weather History & Observations

Time (MST) Temp. Windchill Dew Point Humidity Pressure Visibility Wind Dir Wind Speed Gust Speed Precip Events Conditions
12:53 AM 23.0 °F 15.8 °F 21.0 °F 92% 30.50 in 10.0 mi North 5.8 mph - N/A   Overcast
1:53 AM 24.1 °F - 21.0 °F 88% 30.51 in 10.0 mi Calm Calm - N/A   Overcast
2:53 AM 24.1 °F - 21.0 °F 88% 30.52 in 10.0 mi Calm Calm - N/A   Overcast
3:53 AM 23.0 °F 18.4 °F 21.0 °F 92% 30.51 in 10.0 mi North 3.5 mph - N/A   Overcast
4:53 AM 24.1 °F 17.0 °F 21.0 °F 88% 30.51 in 10.0 mi North 5.8 mph - N/A   Overcast
5:53 AM 24.1 °F 18.2 °F 21.0 °F 88% 30.49 in 10.0 mi North 4.6 mph - N/A   Overcast
6:53 AM 24.1 °F 16.0 °F 21.0 °F 88% 30.48 in 10.0 mi North 6.9 mph - N/A   Overcast
7:53 AM 24.1 °F 19.7 °F 21.0 °F 88% 30.48 in 10.0 mi North 3.5 mph - N/A   Overcast
8:53 AM 24.1 °F 18.2 °F 21.9 °F 91% 30.49 in 10.0 mi North 4.6 mph - N/A   Overcast
9:53 AM 25.0 °F 18.1 °F 21.0 °F 85% 30.49 in 10.0 mi NNW 5.8 mph - N/A   Overcast
10:53 AM 26.1 °F 21.9 °F 21.9 °F 84% 30.49 in 10.0 mi North 3.5 mph - N/A   Overcast
11:53 AM 27.0 °F 19.5 °F 21.9 °F 81% 30.46 in 10.0 mi North 6.9 mph - N/A   Overcast
12:53 PM 28.9 °F 22.8 °F 24.1 °F 82% 30.43 in 10.0 mi North 5.8 mph - N/A   Overcast
1:53 PM 30.0 °F 23.2 °F 24.1 °F 79% 30.40 in 10.0 mi North 6.9 mph - N/A   Mostly Cloudy
2:53 PM 30.0 °F 24.1 °F 26.1 °F 85% 30.38 in 10.0 mi NNW 5.8 mph - N/A   Overcast
3:53 PM 30.9 °F 26.2 °F 26.1 °F 82% 30.37 in 10.0 mi North 4.6 mph - N/A   Overcast
4:53 PM 30.0 °F 25.2 °F 26.1 °F 85% 30.35 in 10.0 mi NNW 4.6 mph - N/A   Overcast
5:53 PM 30.0 °F 22.4 °F 26.1 °F 85% 30.34 in 10.0 mi NNW 8.1 mph - N/A   Overcast
6:53 PM 30.0 °F 25.2 °F 25.0 °F 82% 30.34 in 10.0 mi NNW 4.6 mph - N/A   Overcast
7:53 PM 28.0 °F - 24.1 °F 85% 30.33 in 10.0 mi Calm Calm - N/A   Mostly Cloudy
8:53 PM 25.0 °F 17.1 °F 23.0 °F 92% 30.32 in 10.0 mi North 6.9 mph - N/A   Mostly Cloudy
9:53 PM 25.0 °F 19.3 °F 21.9 °F 88% 30.31 in 10.0 mi ENE 4.6 mph - N/A   Scattered Clouds
10:13 PM 19.9 °F - 18.0 °F 92% 30.19 in 1.8 mi Calm Calm - N/A   Clear
10:22 PM 21.0 °F 16.2 °F 19.0 °F 92% 30.18 in 0.5 mi NNW 3.5 mph - N/A Fog Light Freezing Fog
10:31 PM 21.0 °F - 19.0 °F 92% 30.18 in 0.2 mi Calm Calm - N/A Fog Light Freezing Fog
10:38 PM 21.9 °F - 19.9 °F 92% 30.17 in 0.8 mi Calm Calm - N/A   Mist
10:53 PM 14.0 °F 5.1 °F 12.9 °F 95% 30.33 in 0.2 mi NNW 5.8 mph - N/A Fog Light Freezing Fog
11:05 PM 16.0 °F 7.4 °F 14.0 °F 92% 30.17 in 1.0 mi NNW 5.8 mph - N/A   Scattered Clouds
11:09 PM 18.0 °F 11.1 °F 15.1 °F 88% 30.17 in 3.0 mi NNW 4.6 mph - N/A   Partly Cloudy
11:53 PM 17.1 °F 11.7 °F 14.0 °F 88% 30.30 in 8.0 mi North 3.5 mph - N/A   Clear